Pian Rosa, Italy

2:23 PM CEST on July 23, 2017 (GMT +0200)
Pian Rosa

Weather History for LIMH - March, 2014

Change the Weather History Date:

Tuesday, March 25, 2014

  Actual Average Record
Temperature  
Mean Temperature 8 °F -  
Max Temperature 12 °F 21 °F 28 °F (2005)
Min Temperature 3 °F 10 °F -5 °F (2008)
Degree Days  
Heating Degree Days 58    
Moisture  
Dew Point 6 °F    
Average Humidity 90    
Maximum Humidity 100    
Minimum Humidity 81    
Precipitation  
Precipitation 0.00 in - - ()
Sea Level Pressure  
Sea Level Pressure 29.48 in    
Wind  
Wind Speed 7 mph ()    
Max Wind Speed 15 mph    
Max Gust Speed -    
Visibility 6.0 miles    
Events Fog    
Averages and records for this station are not official NWS values.
T = Trace of Precipitation, MM = Missing Value Source: Averaged Metar Reports

Daily Weather History Graph

Daily Weather History Graph

Search for Another Location

Airport or City:

Trip Planner

Search our weather history database for the weather conditions in past years. The results will help you decide how hot, cold, wet, or windy it might be!

Date:

Astronomy

Mar. 25, 2014 Rise Set
Actual Time 6:23 AM CET 6:48 PM CET
Civil Twilight 5:53 AM CET 7:18 PM CET
Nautical Twilight 5:17 AM CET 7:53 PM CET
Astronomical Twilight 4:41 AM CET 8:30 PM CET
Moon 2:47 AM CET (3/25) 12:44 PM CET (3/25)
Length of Visible Light 13h 24m
Length of Day
12h 25m
Waning Crescent, 34% of the Moon is Illuminated
Mar 25
Waning Crescent
Mar 30
New
Apr 7
First Quarter
Apr 15
Full
Apr 22
Last Quarter

Hourly Weather History & Observations

Time (CET) Temp. Windchill Dew Point Humidity Pressure Visibility Wind Dir Wind Speed Gust Speed Precip Events Conditions
12:00 AM 4 °F - 2 °F 85%  in 6 mi SW 11.5 mph - -  
12:55 AM 3.2 °F -11.3 °F 1.4 °F 92% 29.53 in - SSW 9.2 mph - N/A   Clear
1:00 AM 4 °F - 2 °F 85%  in 6 mi SSW 9.2 mph - -  
1:55 AM 3.2 °F -11.3 °F 1.4 °F 92% 29.53 in - SW 9.2 mph - N/A   Clear
2:00 AM 4 °F - 2 °F 84%  in 6 mi SW 9.2 mph - -  
2:55 AM 3.2 °F -12.2 °F 1.4 °F 92% 29.53 in - SW 10.4 mph - N/A   Clear
3:00 AM 4 °F - 2 °F 88%  in 6 mi SW 10.4 mph - -  
3:55 AM 5.0 °F -5.6 °F 1.4 °F 85% 29.50 in - ENE 5.8 mph - N/A   Clear
4:00 AM 4 °F - 2 °F 89%  in 6 mi ENE 5.8 mph - -  
4:55 AM 5.0 °F -4.1 °F 3.2 °F 92% 29.50 in - NE 4.6 mph - N/A   Clear
5:00 AM 5 °F - 2 °F 83%  in 6 mi NE 4.6 mph - -  
5:55 AM 5.0 °F -4.1 °F 3.2 °F 92% 29.50 in - ESE 4.6 mph - N/A   Clear
6:00 AM 5 °F - 3 °F 85%  in 9 mi ESE 4.6 mph - -  
6:55 AM 5.0 °F -6.9 °F 3.2 °F 92% 29.50 in 6.2 mi ENE 6.9 mph - N/A   Mostly Cloudy
7:00 AM 5 °F - 2 °F 84%  in 12 mi ENE 6.9 mph - -   Mostly Cloudy
7:55 AM 5.0 °F -5.6 °F 3.2 °F 92% 29.50 in 6.2 mi West 5.8 mph - N/A   Mostly Cloudy
8:00 AM 5 °F - 3 °F 85%  in 47 mi West 5.8 mph - -   Mostly Cloudy
8:55 AM 6.8 °F -4.8 °F 3.2 °F 85% 29.47 in 6.2 mi WSW 6.9 mph - N/A   Mostly Cloudy
9:00 AM 6 °F - 3 °F 82%  in 47 mi WSW 6.9 mph - -   Mostly Cloudy
9:55 AM 6.8 °F -8.6 °F 5.0 °F 92% 29.47 in 6.2 mi SW 11.5 mph - N/A   Partly Cloudy
10:00 AM 8 °F - 5 °F 81%  in 47 mi SW 11.5 mph - -   Scattered Clouds
10:55 AM 8.6 °F -4.7 °F 6.8 °F 92% 29.47 in 1.9 mi SW 9.2 mph - N/A   Mist
11:00 AM 9 °F - 6 °F 82%  in 2 mi SW 9.2 mph - -   Mist
11:55 AM 10.4 °F -0.4 °F 8.6 °F 92% 29.47 in 1.9 mi SW 6.9 mph - N/A   Mist
12:00 PM 11 °F - 9 °F 85%  in 2 mi SW 6.9 mph - -   Mist
12:55 PM 12.2 °F 2.9 °F 10.4 °F 92% 29.47 in 1.9 mi WSW 5.8 mph - N/A   Mist
1:00 PM 12 °F - 10 °F 90%  in 2 mi WSW 5.8 mph - -   Mist
1:55 PM 12.2 °F 1.7 °F 10.4 °F 92% 29.47 in 6.2 mi SW 6.9 mph - N/A   Scattered Clouds
2:00 PM 13 °F - 11 °F 87%  in 19 mi SW 6.9 mph - -   Mostly Cloudy
2:55 PM 12.2 °F 4.3 °F 10.4 °F 92% 29.47 in 6.2 mi SW 4.6 mph - N/A   Scattered Clouds
3:00 PM 12 °F - 11 °F 91%  in 19 mi SW 4.6 mph - -   Mostly Cloudy
3:55 PM 12.2 °F 6.1 °F 10.4 °F 92% 29.44 in 6.2 mi SW 3.5 mph - N/A   Scattered Clouds
4:00 PM 13 °F - 11 °F 87%  in 16 mi SW 3.5 mph - -   Mostly Cloudy
4:55 PM 12.2 °F 6.1 °F 10.4 °F 92% 29.47 in 6.2 mi SW 3.5 mph - N/A   Scattered Clouds
5:00 PM 12 °F - 11 °F 91%  in 9 mi SW 3.5 mph - -   Mostly Cloudy
5:55 PM 12.2 °F 6.1 °F 10.4 °F 92% 29.47 in 6.2 mi SW 3.5 mph - N/A   Scattered Clouds
6:00 PM 12 °F - 10 °F 90%  in 16 mi SW 3.5 mph - -   Mostly Cloudy
6:55 PM 10.4 °F 4.0 °F 8.6 °F 92% 29.47 in 6.2 mi SW 3.5 mph - N/A   Scattered Clouds
7:00 PM 11 °F - 9 °F 89%  in 12 mi SW 3.5 mph - -   Mostly Cloudy
7:55 PM 10.4 °F -0.4 °F 8.6 °F 92% 29.47 in 6.2 mi SW 6.9 mph - N/A   Scattered Clouds
8:00 PM 10 °F - 8 °F 90%  in 6 mi SW 6.9 mph - -   Mostly Cloudy
8:55 PM 8.6 °F -1.3 °F 8.6 °F 100% 29.47 in 0.5 mi SW 5.8 mph - N/A Fog Light Freezing Fog
9:00 PM 9 °F - 8 °F 93%  in 0 mi SW 5.8 mph - - Fog Heavy Fog
9:55 PM 8.6 °F - 8.6 °F 100% 29.47 in 0.2 mi Variable 2.3 mph - N/A Fog Light Freezing Fog
10:00 PM 9 °F - 8 °F 93%  in 0 mi 2.3 mph - - Fog Heavy Fog
10:55 PM 8.6 °F 0.1 °F 8.6 °F 100% 29.50 in 0.2 mi SW 4.6 mph - N/A Fog Light Freezing Fog
11:00 PM 9 °F - 8 °F 93%  in 0 mi SW 4.6 mph - - Fog Heavy Fog
11:55 PM 8.6 °F -8.3 °F 6.8 °F 92% 29.47 in 0.5 mi SE 15.0 mph - N/A Fog Light Freezing Fog